GFSNW_700_spd_132.txt.gz
Wind_Speed
49 44 35 35 36 39 36 36 41 46 42 43 45 44 49 44 40 35 26 22 20 13 13 11 15 25 21 11 21 18 20 10 17 20 19 19 20 21 20 13 10 20 15 30
49 47 42 36 35 39 39 37 42 41 42 37 47 48 47 50 45 36 31 32 23 17 18 10 12 15 17 23 21 16 21 16 12 11 14 18 22 25 25 25 26 35 8 24
47 47 40 41 37 37 41 38 38 38 36 51 46 49 55 49 45 29 34 33 31 33 29 29 16 16 11 13 20 24 24 23 24 20 15 13 15 20 19 19 20 33 41 47
44 47 48 40 43 38 40 48 30 36 38 51 55 45 45 50 42 43 39 33 26 21 26 27 24 22 18 19 19 23 25 21 21 23 22 25 26 27 25 29 40 33 51 41
47 52 54 45 43 40 37 52 35 43 40 44 51 45 51 49 46 43 37 27 26 27 31 26 23 21 21 23 19 19 19 21 23 25 25 24 29 29 31 39 40 44 44 47
43 55 58 45 45 46 43 48 55 32 46 40 44 56 55 53 48 39 40 28 28 27 23 21 22 22 20 22 21 20 24 27 16 17 19 17 29 29 26 25 23 21 24 25
40 49 55 52 56 51 43 46 48 45 35 43 48 49 48 47 43 45 24 26 27 26 27 27 26 24 25 25 19 19 20 17 17 15 12 6 18 14 16 20 20 22 27 28
43 50 55 56 53 52 43 42 46 52 31 37 41 43 40 41 42 35 35 34 12 21 28 24 17 20 25 26 24 22 20 21 15 7 11 25 33 22 17 15 21 20 19 17
43 50 56 43 50 51 40 42 43 42 51 31 29 36 36 36 37 40 45 32 22 22 19 16 15 10 9 9 10 25 25 23 19 13 5 5 13 11 11 14 23 11 13 12
43 47 51 42 41 50 49 41 42 46 43 40 31 30 31 32 35 36 31 27 28 23 24 26 20 16 11 11 13 14 27 26 26 24 14 16 22 18 20 14 20 15 15 14
41 44 44 41 40 40 39 39 39 42 44 23 24 31 31 31 30 32 27 22 25 23 25 22 20 17 20 18 17 18 19 14 18 19 12 13 14 9 12 13 12 13 10 10
41 41 39 39 39 35 35 38 41 40 47 40 28 13 29 24 21 18 22 23 23 21 21 26 17 17 15 24 21 24 21 29 21 20 20 18 18 23 19 15 15 18 17 15
42 42 41 41 39 38 39 40 41 43 47 53 42 30 19 19 19 21 24 25 25 21 24 23 23 20 18 21 26 28 25 25 28 28 29 26 26 29 25 22 20 21 23 21
45 44 42 41 38 38 38 40 39 41 42 48 41 33 28 26 23 25 22 22 22 26 24 25 30 30 21 21 24 26 26 25 28 28 22 27 22 21 17 21 24 24 23 22
45 42 40 38 36 37 34 32 33 34 33 18 49 35 12 28 24 14 9 21 27 25 25 26 28 29 28 30 31 35 29 25 26 22 15 16 15 16 19 20 23 23 22 21
44 41 37 35 36 36 33 32 29 33 33 29 16 43 23 10 24 24 20 19 21 25 27 30 33 30 26 14 20 25 17 14 13 19 23 23 23 23 23 23 23 22 21 20
45 40 37 36 38 38 40 33 26 30 28 32 15 17 30 15 23 19 27 23 21 20 28 28 24 22 22 25 26 19 17 21 22 21 21 21 22 23 23 23 22 21 22 22
44 41 38 39 39 35 36 27 17 28 32 32 18 4 9 23 32 31 27 26 22 24 26 24 20 15 16 18 15 13 14 17 18 17 16 16 17 19 21 22 22 21 20 20
45 43 42 39 35 35 36 22 14 26 31 20 21 27 18 23 25 26 24 24 26 13 24 21 17 22 16 10 11 10 12 13 12 12 12 13 15 17 19 20 19 18 18 18
48 47 42 35 31 30 31 18 20 24 37 15 18 24 24 18 21 22 16 19 18 13 15 12 16 26 23 21 18 16 14 13 12 13 14 15 16 16 16 16 17 17 18 17
52 45 19 33 31 36 18 15 18 19 14 21 21 23 23 22 27 23 16 8 8 5 7 12 9 24 23 19 22 21 20 20 20 21 21 21 20 18 16 15 16 18 17 15
45 31 37 32 33 11 4 16 14 11 15 13 17 19 24 22 24 18 10 8 8 4 7 8 10 21 20 18 17 17 17 18 20 21 21 20 18 16 15 14 14 14 13 10
35 36 31 21 6 7 7 11 13 7 13 17 24 25 24 21 21 9 6 6 6 5 7 7 11 13 13 10 11 12 13 14 15 15 15 15 15 14 13 14 12 11 9 10
29 18 11 8 5 5 6 15 23 17 8 18 24 28 23 17 15 7 6 7 6 6 7 9 14 11 10 10 10 9 8 8 10 11 12 13 13 12 12 12 10 9 9 10
5 9 6 6 7 11 9 19 21 16 13 19 26 24 14 17 8 7 7 8 6 7 7 9 8 11 9 9 9 7 6 7 8 9 9 10 10 10 10 10 9 8 9 10
11 5 6 5 8 12 12 16 15 15 18 24 25 13 11 7 5 7 7 4 5 4 6 7 8 7 7 6 6 6 6 7 7 6 6 8 9 9 8 8 8 8 8 8
3 2 3 6 9 11 15 16 16 20 23 25 11 5 7 6 5 5 6 8 7 5 5 5 5 5 5 5 6 7 6 6 5 5 5 6 6 6 5 5 6 7 8 8

GFSNW_700_spd_135.txt.gz
Wind_Speed
52 46 40 41 36 29 31 32 38 47 39 41 41 44 45 44 32 28 25 16 17 14 14 13 20 15 16 6 14 13 14 9 13 19 17 18 17 19 17 11 10 13 11 29
54 54 47 37 34 34 36 37 35 40 43 46 46 45 45 38 35 42 32 26 22 15 16 12 14 15 12 18 15 9 14 13 9 8 13 18 20 23 23 23 24 23 11 22
53 50 56 49 37 36 35 36 32 41 37 45 52 42 53 47 35 26 31 27 29 22 21 18 7 7 5 7 12 18 19 17 14 16 14 12 14 18 17 20 18 19 42 38
48 49 56 52 41 38 38 45 24 36 46 50 42 56 44 47 41 39 25 31 30 30 31 26 19 17 18 16 14 13 14 19 22 24 19 18 20 25 22 27 33 26 49 43
47 47 46 51 39 39 44 45 50 37 42 45 54 36 56 49 47 40 34 34 25 23 25 25 16 16 15 16 12 11 16 18 19 23 23 20 25 33 30 34 38 43 40 42
45 44 43 46 46 43 48 48 50 22 37 40 45 54 47 47 40 43 31 23 25 22 23 24 24 23 23 19 13 11 15 17 16 18 17 18 24 30 20 22 28 25 31 25
38 46 44 38 41 47 41 47 43 54 31 44 44 50 55 48 41 29 23 31 26 20 20 19 18 21 22 22 22 23 22 19 18 6 4 5 16 14 15 24 30 31 31 24
37 37 39 42 41 43 45 41 46 48 44 34 39 41 41 48 39 28 32 28 9 21 22 14 15 20 24 25 26 22 24 20 10 7 8 20 31 19 15 18 24 15 13 11
40 40 38 39 42 43 46 49 48 40 48 36 30 36 40 36 38 36 33 29 22 19 12 15 14 10 11 8 10 22 24 21 19 13 5 6 14 16 21 18 28 17 11 14
44 44 44 41 40 40 44 43 49 39 41 40 33 35 34 36 35 31 33 31 20 19 25 21 17 14 10 10 11 13 22 22 27 21 12 18 22 18 18 8 12 8 11 12
47 47 47 44 39 40 45 43 46 41 41 31 39 22 26 27 31 32 25 17 25 30 31 23 19 16 19 18 16 16 19 17 20 17 11 14 14 14 15 9 13 11 10 12
47 46 46 42 39 35 37 48 46 44 41 32 29 29 39 27 21 19 22 23 21 25 21 23 16 16 15 24 22 23 20 25 18 20 18 20 21 18 21 25 23 19 17 17
42 42 41 38 33 33 40 52 41 38 36 38 27 26 22 27 29 24 24 21 18 17 26 20 21 15 21 23 24 20 25 24 26 26 31 28 29 26 23 23 23 23 20 21
35 36 36 32 36 34 38 43 40 35 33 31 30 37 21 12 27 26 27 24 25 22 19 24 25 21 19 21 21 24 22 21 25 31 29 29 20 19 19 22 16 18 21 20
37 31 35 34 37 36 34 33 33 32 28 14 29 33 38 25 15 21 23 25 24 21 26 27 26 27 24 27 28 31 29 29 30 34 19 19 15 14 16 14 15 17 20 20
36 30 34 36 39 36 32 27 26 28 26 25 16 14 35 32 28 28 16 22 21 30 25 28 29 27 23 15 27 26 23 23 17 15 14 18 20 21 22 22 21 21 21 20
37 36 34 35 34 30 28 22 19 17 19 20 19 17 25 33 22 26 15 16 19 22 31 29 25 24 26 33 34 26 19 14 17 21 22 23 23 23 22 21 21 21 20 20
36 35 33 32 28 26 23 14 18 18 18 17 11 9 15 29 21 21 23 23 21 22 23 21 21 20 24 26 28 18 15 16 18 21 21 19 17 17 17 17 19 20 21 21
35 34 32 29 26 27 21 18 16 14 22 18 14 14 4 10 21 20 31 23 17 11 14 20 18 23 19 18 13 13 12 10 11 12 12 14 14 14 14 15 17 19 20 21
38 35 31 28 31 35 22 16 14 17 25 21 19 20 14 11 2 20 19 19 13 8 16 14 25 30 25 24 17 16 15 15 14 13 13 13 14 15 16 18 19 19 20 20
40 40 23 30 31 30 25 12 15 15 16 27 22 15 16 23 16 15 15 10 11 9 10 19 9 26 24 19 23 22 20 22 22 20 20 20 21 22 22 21 19 18 18 19
39 36 31 31 29 12 10 14 14 10 13 13 20 16 18 20 15 13 15 7 9 6 9 10 10 19 18 17 15 17 20 20 19 19 19 20 21 21 19 17 17 17 17 19
30 31 24 19 8 10 6 13 13 12 22 28 13 16 20 20 16 7 8 8 6 6 7 6 10 13 13 12 12 14 16 17 18 18 16 15 15 14 14 15 15 15 15 16
25 21 16 9 6 8 7 17 19 15 15 22 23 24 14 12 15 5 6 6 6 6 7 8 15 13 11 10 11 11 12 11 9 10 11 11 12 11 11 12 12 12 12 12
9 10 8 7 6 7 14 19 18 18 6 10 20 23 13 15 6 7 6 7 5 6 6 9 8 11 12 10 11 11 9 8 9 8 7 7 7 9 10 10 10 9 9 9
3 4 3 3 6 7 8 14 13 14 12 16 20 15 6 7 6 6 7 5 5 4 5 7 6 5 5 8 8 8 8 8 6 5 5 5 7 7 8 8 7 7 6 6
4 1 3 4 6 7 8 10 13 14 18 24 10 7 7 6 5 6 6 7 6 5 5 3 4 5 6 6 6 6 6 5 4 3 4 5 6 6 5 5 5 5 5 5

GFSNW_700_spd_138.txt.gz
Wind_Speed
49 48 49 39 39 35 31 31 36 39 37 44 46 44 49 33 19 22 20 18 17 16 19 17 17 17 16 16 12 16 17 9 9 14 16 19 18 15 14 13 13 16 15 30
50 50 47 49 40 41 36 35 37 34 43 48 44 46 45 40 27 22 23 20 17 17 16 13 18 19 18 12 12 9 13 10 10 6 10 17 20 18 19 17 18 26 19 23
54 47 52 51 41 39 40 40 43 32 47 42 45 47 49 40 39 32 27 20 25 19 16 18 16 14 13 14 14 14 12 18 15 19 6 3 10 17 19 17 21 26 31 31
58 54 53 54 50 39 46 49 34 45 42 57 42 46 39 39 37 34 29 28 28 28 22 22 14 15 13 10 8 9 11 15 20 22 21 22 21 21 18 26 29 26 39 38
58 51 46 53 51 51 48 48 39 39 32 49 50 45 37 36 36 30 37 29 26 26 29 25 15 18 15 16 17 18 17 14 19 19 20 21 23 26 23 30 36 33 41 46
55 48 52 50 53 53 53 44 44 33 33 33 40 57 47 42 30 32 30 36 32 26 26 27 22 23 17 13 13 13 14 18 16 14 8 8 19 31 29 27 23 24 27 29
48 70 51 49 48 48 53 46 46 39 24 37 37 46 46 41 41 33 28 27 27 29 30 21 23 20 18 21 20 15 17 15 11 9 5 6 17 19 15 16 21 20 26 20
39 38 52 46 48 47 48 47 46 44 31 27 27 35 39 35 28 31 31 28 21 13 14 14 12 14 20 21 24 23 20 20 11 10 14 18 24 19 23 17 24 20 20 16
34 37 37 49 46 52 48 51 27 49 31 31 28 28 27 33 38 21 24 20 21 21 22 14 13 12 12 9 9 22 26 24 19 12 9 10 6 11 13 20 24 9 11 14
31 35 32 36 42 41 43 42 32 32 40 23 30 28 27 26 28 31 25 23 26 25 20 19 18 19 16 14 11 10 17 20 25 24 13 18 18 22 19 6 10 11 10 11
29 35 36 31 33 34 34 29 23 28 41 31 32 28 29 30 26 27 25 22 23 26 23 21 18 18 20 19 15 16 15 13 16 20 13 16 14 17 15 13 15 13 13 15
39 39 38 36 31 32 31 25 23 28 37 26 25 31 27 26 27 24 26 27 22 26 20 25 19 18 17 20 21 19 18 21 17 17 17 16 15 21 23 23 22 28 26 21
41 40 40 40 36 32 28 22 25 34 29 33 23 27 28 19 18 22 27 28 21 25 24 20 21 20 19 20 21 18 20 19 27 20 26 28 27 25 25 26 24 22 24 22
42 43 45 41 37 32 31 26 25 33 34 32 29 26 25 23 30 32 27 25 28 23 24 27 21 17 16 16 20 21 21 19 25 31 29 26 27 26 22 20 20 25 19 17
40 41 42 41 38 34 29 25 30 32 40 30 30 22 28 29 22 31 32 32 30 29 23 26 24 21 20 18 23 23 25 27 26 27 24 25 26 20 17 16 16 15 17 17
37 38 38 36 31 32 31 33 42 44 43 16 14 24 21 23 24 16 27 32 29 30 29 27 24 27 20 16 28 29 28 24 21 22 26 21 20 21 21 21 21 20 19 19
38 38 37 38 35 37 38 34 39 42 33 26 13 10 15 10 24 19 17 19 20 32 31 30 31 27 29 33 30 23 21 23 19 17 17 21 22 21 23 25 23 20 19 18
37 42 37 36 38 32 29 25 28 29 24 20 11 10 11 15 22 21 22 24 21 21 29 31 35 27 28 30 32 24 22 21 22 20 22 25 25 25 22 19 17 16 17 18
42 39 40 36 31 24 21 18 17 18 21 13 11 14 12 14 19 20 21 26 20 18 22 24 16 27 27 32 25 19 16 15 13 12 14 16 17 16 16 15 14 15 17 19
38 36 37 33 29 22 20 22 19 16 16 18 15 19 14 14 19 23 19 16 13 12 15 14 26 30 29 24 21 14 11 12 13 13 12 13 13 14 14 15 17 20 22 23
36 34 33 32 29 25 15 12 11 10 11 20 19 23 19 16 10 2 17 9 9 6 9 13 9 23 25 18 21 22 21 21 22 20 19 19 19 19 20 22 24 24 24 23
35 33 36 36 25 7 5 7 8 8 14 12 20 23 15 10 12 9 9 7 10 5 9 11 8 19 17 15 15 18 22 24 24 23 22 20 18 19 21 21 20 20 20 21
25 30 21 23 6 10 6 13 11 10 15 17 25 25 11 14 14 8 6 7 6 6 8 6 10 12 10 10 12 15 18 19 21 21 20 18 16 15 15 16 17 17 17 18
21 15 13 8 6 7 11 13 12 11 14 19 23 15 15 15 16 7 6 6 6 5 6 8 14 14 14 14 14 14 14 13 13 13 11 12 12 13 14 14 14 14 14 15
7 5 8 9 12 10 10 14 12 11 16 23 22 18 13 16 7 7 5 6 5 7 7 9 9 11 13 13 12 12 11 10 8 9 10 11 11 11 11 11 10 11 11 11
8 6 7 5 3 10 15 18 13 12 9 15 16 11 6 5 5 7 7 5 6 6 6 7 8 8 8 9 10 9 8 7 9 10 9 9 9 9 8 8 8 8 9 9
2 4 3 2 4 9 10 13 12 14 18 21 9 10 7 6 6 7 9 9 7 6 5 5 3 4 4 5 6 6 6 7 8 7 8 8 8 7 7 6 6 6 7 7

GFSNW_700_spd_141.txt.gz
Wind_Speed
55 48 45 48 38 40 37 34 34 37 42 46 47 44 51 37 31 19 18 22 19 23 23 21 24 19 14 18 17 25 18 13 13 20 12 18 20 18 18 15 12 19 22 24
59 57 49 45 46 41 41 42 36 33 36 48 43 50 53 35 30 32 23 20 19 18 18 20 20 19 19 15 18 13 20 12 16 12 10 16 21 21 20 18 15 21 16 25
51 61 55 49 46 43 46 46 40 39 35 49 53 46 42 43 40 27 22 22 21 20 20 19 14 16 20 19 23 20 17 14 18 20 8 4 20 20 20 19 20 22 28 30
47 55 61 52 48 45 44 53 32 44 46 49 55 37 42 39 35 39 26 26 24 26 24 21 16 14 19 23 18 18 17 16 18 23 15 11 14 14 17 21 25 26 33 31
45 50 55 57 53 45 48 50 39 37 34 47 53 40 42 34 40 31 37 37 28 27 26 25 20 19 23 23 21 20 22 14 14 19 16 18 20 22 21 25 29 29 30 36
39 45 58 60 55 50 52 59 41 32 37 30 45 48 53 39 34 37 33 27 29 27 28 27 25 25 27 24 16 15 19 20 19 16 17 15 18 28 30 29 29 27 30 28
41 47 51 59 61 55 55 55 45 37 31 33 35 45 46 40 36 37 38 29 27 23 24 24 23 21 23 23 21 9 14 14 15 11 8 12 24 20 16 19 20 18 23 23
36 36 45 54 60 58 59 51 45 38 32 30 29 30 40 41 32 30 23 26 23 31 26 24 17 20 13 20 25 24 18 18 17 16 17 18 22 18 21 19 21 15 19 22
35 34 41 50 57 56 65 52 49 40 37 22 27 28 32 38 39 30 23 24 25 19 23 26 14 6 7 8 11 19 20 21 21 16 14 14 24 12 12 13 22 11 9 13
32 30 35 50 54 57 55 46 50 39 41 34 20 24 26 27 28 28 32 28 26 29 30 23 19 19 13 14 18 9 18 22 28 26 24 26 19 16 15 11 12 11 14 13
28 24 26 40 47 55 60 39 40 34 38 32 23 21 22 27 26 31 22 25 27 21 19 18 13 17 21 23 22 16 16 14 19 25 25 24 16 19 17 12 14 19 19 19
26 24 28 36 40 41 43 41 35 37 36 26 31 28 31 26 27 24 24 31 16 20 15 22 21 22 17 22 23 25 24 22 18 18 21 19 13 14 13 16 16 18 21 28
28 24 27 33 36 36 38 33 26 34 31 22 21 27 21 21 26 27 21 23 23 17 20 17 19 19 24 22 23 21 22 23 25 24 22 21 16 19 20 19 21 23 28 28
30 24 26 30 30 28 29 25 23 23 27 21 20 27 21 21 20 23 29 23 29 28 21 25 22 22 23 25 24 27 24 21 23 28 25 20 21 22 22 22 26 25 23 24
34 29 28 31 29 28 29 25 22 23 18 15 16 18 22 17 22 22 22 25 27 26 26 23 27 23 21 21 24 29 26 29 29 26 14 16 16 22 26 24 21 19 20 18
35 32 34 30 27 26 25 25 21 21 20 14 14 15 19 21 21 26 26 30 30 27 24 24 23 21 24 21 28 21 21 22 27 26 24 25 32 28 29 23 21 22 22 21
34 34 31 29 26 24 20 16 16 22 30 14 11 8 18 19 17 19 16 23 29 32 31 29 21 20 26 28 27 16 19 21 22 17 20 22 23 22 20 20 20 22 23 22
35 35 34 31 27 23 20 21 19 25 30 21 9 7 10 19 15 14 15 15 17 29 34 33 31 22 25 25 28 30 30 24 22 21 23 23 26 24 24 24 24 21 20 18
34 33 30 28 24 23 22 22 22 26 25 17 17 11 8 11 12 13 17 15 14 19 25 35 31 29 25 25 28 25 20 22 22 19 16 16 17 17 18 18 18 18 18 16
38 30 34 23 30 28 27 26 29 28 26 21 14 13 14 11 15 17 15 15 17 13 21 15 34 36 27 24 21 16 18 16 15 15 14 12 12 13 14 16 17 17 19 21
39 41 28 31 31 28 17 16 10 11 11 19 21 15 13 14 14 17 15 12 6 9 9 16 12 17 21 23 25 21 24 21 18 18 19 19 18 18 19 20 21 22 24 25
37 34 34 34 20 10 6 11 7 7 8 11 21 18 17 18 20 9 10 11 11 7 10 9 11 15 18 16 16 25 20 23 24 24 23 22 21 21 21 21 22 22 22 21
34 24 18 15 7 6 8 11 9 11 12 19 21 24 25 16 10 9 6 6 7 5 9 6 10 18 18 15 14 15 17 21 23 24 22 22 22 21 21 19 17 17 19 20
19 11 9 5 4 4 7 8 10 14 10 18 22 25 22 17 17 9 5 7 5 5 6 9 13 15 14 14 15 16 17 17 18 18 19 18 18 16 15 15 16 17 17 17
5 7 7 6 8 9 9 11 13 13 11 17 25 26 15 14 9 8 7 6 6 7 6 13 13 10 12 14 15 14 13 14 13 14 14 13 13 13 12 13 14 14 14 14
4 8 7 7 10 13 11 13 11 15 20 22 17 15 7 10 8 8 8 5 6 8 7 6 9 10 9 11 13 13 13 12 12 12 12 12 11 10 12 12 12 12 12 11
7 7 5 6 6 11 16 17 16 17 19 22 11 11 9 6 6 7 7 9 10 7 8 6 7 7 7 8 9 9 10 11 11 11 10 9 9 10 11 10 10 10 9 9